Flag for Poland Weather past 2 weeks in Gdańsk, Poland

Now
70 °F

Sprinkles. Scattered clouds.


Feels Like: 70 °F
Forecast: 61 / 76 °F
Wind: 5 mph from West

Location: Gdansk-Rebiechowo

Current Time: Jul 6, 2015 at 9:34:55 AM

Latest Report: Jul 6, 2015 at 9:00 AM


Visibility: N/A

Pressure: 29.89 "Hg

Humidity: 88%

Dew point: 66 °F

Location of GdańskLocation

Historic Weather in Gdańsk — Graph

°F

Gdańsk temperature yesterday

Maximum temperature yesterday: 90 °F (at 1:00 PM)
Minimum temperature yesterday: 61 °F (at 4:30 AM)
Average temperature yesterday: 76 °F

Past Weeks' High & Low Weather Summary

 TemperatureHumidityPressure
High90 °F (Jul 5, 1:00 PM)100% (Jun 21, 8:00 AM)30.42 "Hg (Jun 21, 8:00 AM)
Low46 °F (Jun 22, 4:30 AM)25% (Jul 4, 12:00 PM)29.59 "Hg (Jun 23, 3:30 AM)
Average62 °F74%30.06 "Hg
* Reported Jun 21 8:00 AM — Jul 6 8:30 AM, Gdańsk, Weather by CustomWeather, © 2015

Note: Actual official high and low records may vary slightly from our data, if they occured in-between our weather recording intervals... More about our weather records

Advertising

Gdańsk weather history for previous 24 hours

 ConditionsComfort  
Time TempWeatherWind HumidityBarometerVisibility
8:30 AM
Mon, Jul 6
70 °FScattered clouds.3 mph88%29.86 "HgN/A
8:00 AM70 °FSprinkles. Scattered clouds.3 mph88%29.89 "HgN/A
7:30 AM70 °FSprinkles. Scattered clouds.9 mph83%29.89 "HgN/A
7:00 AM70 °FSprinkles. Passing clouds.15 mph83%29.92 "HgN/A
6:30 AM72 °FSunny.20 mph73%29.92 "Hg10 mi
6:00 AM73 °FPassing clouds.18 mph74%29.92 "HgN/A
5:00 AM70 °FPassing clouds.2 mph73%29.89 "HgN/A
4:30 AM70 °FClear.2 mph69%29.89 "Hg10 mi
4:00 AM68 °FPassing clouds.2 mph69%29.89 "HgN/A
3:30 AM68 °FClear.1 mph78%29.92 "Hg10 mi
3:00 AM70 °FClear.2 mph64%29.92 "Hg10 mi
2:30 AM70 °FClear.2 mph64%29.92 "Hg10 mi
2:00 AM68 °FClear.2 mph69%29.92 "Hg10 mi
1:30 AM68 °FClear.2 mph73%29.92 "Hg10 mi
1:00 AM68 °FClear.3 mph78%29.92 "Hg10 mi
12:30 AM72 °FClear.2 mph69%29.95 "Hg10 mi
12:00 AM70 °FClear.3 mph73%29.95 "Hg10 mi
11:00 PM
Sun, Jul 5
72 °FClear.1 mph73%29.98 "Hg10 mi
10:30 PM72 °FClear.1 mph73%29.98 "Hg10 mi
10:00 PM73 °FSunny.2 mph69%29.98 "Hg10 mi
9:30 PM73 °FSunny.2 mph69%29.98 "Hg10 mi
9:00 PM75 °FPassing clouds.3 mph65%29.98 "HgN/A
8:30 PM77 °FSunny.2 mph61%29.98 "Hg10 mi
8:00 PM77 °FPassing clouds.3 mph65%30.01 "HgN/A
7:30 PM79 °FPassing clouds.6 mph61%30.01 "HgN/A
7:00 PM81 °FPassing clouds.7 mph58%30.01 "HgN/A
6:30 PM81 °FPassing clouds.6 mph58%30.01 "HgN/A
6:00 PM81 °FPassing clouds.7 mph58%30.01 "HgN/A
5:30 PM82 °FPassing clouds.8 mph51%30.01 "HgN/A
5:00 PM84 °FPassing clouds.8 mph45%30.01 "HgN/A
4:30 PM84 °FPassing clouds.10 mph45%30.01 "HgN/A
4:00 PM86 °FPassing clouds.8 mph43%30.01 "HgN/A
3:30 PM86 °FPassing clouds.8 mph43%30.01 "HgN/A
3:00 PM88 °FPassing clouds.7 mph40%30.01 "HgN/A
2:30 PM88 °FPassing clouds.8 mph38%30.04 "HgN/A
2:00 PM90 °FPassing clouds.5 mph36%30.04 "HgN/A
1:30 PM90 °FSunny.5 mph36%30.04 "Hg10 mi
1:00 PM90 °FSunny.3 mph36%30.04 "Hg10 mi
12:30 PM88 °FPassing clouds.6 mph40%30.04 "HgN/A
12:00 PM88 °FPassing clouds.5 mph38%30.04 "HgN/A
11:30 AM86 °FPassing clouds.5 mph43%30.04 "HgN/A
11:00 AM86 °FPassing clouds.3 mph43%30.04 "HgN/A
10:30 AM86 °FPassing clouds.3 mph40%30.04 "HgN/A
10:00 AM84 °FSunny.2 mph43%30.07 "Hg10 mi
9:30 AM81 °FSunny.2 mph48%30.07 "Hg10 mi
9:00 AM77 °FSunny.2 mph54%30.07 "Hg10 mi
Weather by CustomWeather, © 2015

See weather overviewHow to use our weather pages